UAE2AY OMDB-EGPH

Flight info

Callsign UAE2AY
Flight time N/A
Altitude 36000
Route ANVIX L223 TARDI N629 BOTAM Y855 LAKLU Q204 NALKI G652 TOKRA DCT ALROK DCT BOSOB/N0496F380 DCT ITRUX Y511 PMA Z712 WEJ L677 GESON Q777 ULOMO/N0486F400 Q777 RASDA DCT OTHON DCT VAXOS DCT RDS UL609 MES DCT FSK DCT DISOR DCT LONTA UL608 DOLEV DCT RADLY DCT SIMBA DCT KEMES DCT GASKA DCT MAPOX DCT SOGPO DCT SPY DCT MIMVA L602 NALAX L46 ESHIN N110 ERKIT DCT AGPED
Aircraft A359/H-SDE2E3GHIJ3J4J5LM1ORWXY/LB1D1

Departure

Time 2026-04-25 08:47
Airport Dubai International Airport (OMDB)

Arrival

Time N/A
Airport Edinburgh Airport (EGPH)
Time Latitude Longitude Altitude Speed Heading
2026-04-25 08:16 25.24891 55.35889 27 ft 0 kts 31°
2026-04-25 08:28 25.24876 55.35880 26 ft 4 kts 22°
2026-04-25 08:28 25.24853 55.35869 26 ft 2 kts 31°
2026-04-25 08:28 25.24833 55.35858 24 ft 4 kts
2026-04-25 08:28 25.24811 55.35865 25 ft 4 kts 312°
2026-04-25 08:29 25.24796 55.35887 25 ft 4 kts 302°
2026-04-25 08:29 25.24784 55.35909 25 ft 1 kts 302°
2026-04-25 08:33 25.24785 55.35908 25 ft 1 kts 302°
2026-04-25 08:33 25.24791 55.35896 24 ft 3 kts 302°
2026-04-25 08:33 25.24812 55.35860 24 ft 8 kts 302°
2026-04-25 08:34 25.24845 55.35800 27 ft 10 kts 302°
2026-04-25 08:34 25.24884 55.35737 27 ft 10 kts 307°
2026-04-25 08:34 25.24927 55.35673 27 ft 11 kts 307°
2026-04-25 08:34 25.24974 55.35605 27 ft 11 kts 307°
2026-04-25 08:35 25.25018 55.35531 27 ft 12 kts 301°
2026-04-25 08:35 25.25060 55.35452 27 ft 12 kts 301°
2026-04-25 08:35 25.25105 55.35370 27 ft 13 kts 301°
2026-04-25 08:35 25.25152 55.35284 27 ft 15 kts 304°
2026-04-25 08:36 25.25219 55.35181 27 ft 18 kts 303°
2026-04-25 08:36 25.25294 55.35050 27 ft 21 kts 302°
2026-04-25 08:36 25.25378 55.34919 27 ft 20 kts 321°
2026-04-25 08:36 25.25503 55.34916 27 ft 19 kts 30°
2026-04-25 08:37 25.25571 55.34962 27 ft 11 kts 31°
2026-04-25 08:37 25.25625 55.34998 27 ft 0 kts 31°
2026-04-25 08:38 25.25642 55.35010 27 ft 6 kts 31°
2026-04-25 08:38 25.25699 55.35048 27 ft 13 kts 31°
2026-04-25 08:39 25.25751 55.35135 27 ft 17 kts 96°
2026-04-25 08:39 25.25794 55.35223 27 ft 14 kts 30°
2026-04-25 08:39 25.25897 55.35291 28 ft 20 kts 31°
2026-04-25 08:39 25.25990 55.35379 28 ft 16 kts 63°
2026-04-25 08:40 25.25998 55.35398 28 ft 0 kts 63°
2026-04-25 08:40 25.26007 55.35417 28 ft 8 kts 65°
2026-04-25 08:40 25.26005 55.35520 29 ft 19 kts 111°
2026-04-25 08:40 25.25920 55.35684 29 ft 30 kts 121°
2026-04-25 08:41 25.25795 55.35904 30 ft 35 kts 122°
2026-04-25 08:41 25.25668 55.36130 30 ft 34 kts 122°
2026-04-25 08:41 25.25542 55.36354 30 ft 34 kts 122°
2026-04-25 08:41 25.25441 55.36533 30 ft 22 kts 122°
2026-04-25 08:42 25.25353 55.36688 30 ft 28 kts 122°
2026-04-25 08:42 25.25250 55.36871 30 ft 28 kts 122°
2026-04-25 08:42 25.25148 55.37052 31 ft 28 kts 122°
2026-04-25 08:42 25.25044 55.37236 31 ft 28 kts 122°
2026-04-25 08:43 25.24941 55.37418 32 ft 28 kts 122°
2026-04-25 08:43 25.24838 55.37602 31 ft 27 kts 121°
2026-04-25 08:43 25.24784 55.37700 31 ft 13 kts 121°
2026-04-25 08:43 25.24736 55.37789 31 ft 14 kts 121°
2026-04-25 08:44 25.24682 55.37886 30 ft 15 kts 121°
2026-04-25 08:44 25.24658 55.37953 31 ft 3 kts 63°
2026-04-25 08:44 25.24680 55.37967 31 ft 7 kts 29°
2026-04-25 08:44 25.24727 55.37996 33 ft 7 kts 29°
2026-04-25 08:45 25.24762 55.38018 35 ft 5 kts 30°
2026-04-25 08:45 25.24788 55.38034 36 ft 4 kts 25°
2026-04-25 08:45 25.24806 55.38022 36 ft 2 kts 310°
2026-04-25 08:45 25.24811 55.38014 36 ft 0 kts 302°
2026-04-25 08:46 25.24813 55.38009 36 ft 5 kts 302°
2026-04-25 08:46 25.24917 55.37823 37 ft 60 kts 301°
2026-04-25 08:47 25.25241 55.37241 38 ft 116 kts 302°
2026-04-25 08:47 25.25756 55.36312 41 ft 165 kts 301°
2026-04-25 08:47 25.26331 55.35214 624 ft 164 kts 300°
2026-04-25 08:47 25.26928 55.34100 1020 ft 178 kts 300°
2026-04-25 08:48 25.27583 55.32904 1547 ft 184 kts 302°
2026-04-25 08:48 25.28292 55.31661 1825 ft 199 kts 303°
2026-04-25 08:48 25.29001 55.30271 2081 ft 217 kts 293°
2026-04-25 08:48 25.29133 55.28583 2476 ft 229 kts 257°
2026-04-25 08:49 25.28553 55.26938 3052 ft 230 kts 246°
2026-04-25 08:49 25.27857 55.25334 3611 ft 235 kts 246°
2026-04-25 08:49 25.27145 55.23693 4126 ft 238 kts 246°
2026-04-25 08:49 25.26422 55.22038 4694 ft 239 kts 246°
2026-04-25 08:50 25.25702 55.20374 5211 ft 240 kts 246°
2026-04-25 08:50 25.24965 55.18719 5656 ft 241 kts 242°
2026-04-25 08:50 25.23858 55.17323 6100 ft 246 kts 216°
2026-04-25 08:50 25.22227 55.16700 6445 ft 256 kts 184°
2026-04-25 08:51 25.20429 55.16793 6828 ft 262 kts 171°
2026-04-25 08:51 25.18729 55.17536 7273 ft 267 kts 146°
2026-04-25 08:51 25.17478 55.19045 7540 ft 278 kts 121°
2026-04-25 08:51 25.16542 55.20960 7810 ft 288 kts 118°
2026-04-25 08:52 25.15626 55.22954 8199 ft 293 kts 118°
2026-04-25 08:52 25.14691 55.24963 8642 ft 296 kts 119°
2026-04-25 08:52 25.13738 55.26978 9148 ft 296 kts 120°